Вернуться в каталог

QPS-SAR-11 YAMATSUMI

АктивенНаукаVLEO
NORAD 64340·PAYLOAD·🇯🇵 Japan

Запущен Jun 11, 2025 с Rocket Lab Launch Complex 1

Loading…

Ближайшие Пролёты (ближайшие 24 часа)

TLE

СвежийSource: Space-Track

Эпоха: Sep 14, 2026, 12:00 UTC

1 64340U 25125A   26257.50034526  .00003717  00000-0  29067-3 0  9994
2 64340  42.0079  59.0608 0010707 338.5029  21.5347 15.02262389 69054

Отслеживайте QPS-SAR-11 YAMATSUMI в реальном времени с AllMySat

Download on the App Store